Regional Weather Roundup
Issued by NWS San Angelo, TX

Home | Current Version | Previous Version | Text Only | Print | Product List | Glossary Off
Versions: 1 2 3 4 5 6 7 8 9 10 11 12 13 14 15 16 17 18 19 20 21 22 23 24 25 26 27 28 29 30 31 32 33 34 35 36 37 38 39 40 41 42 43 44 45 46 47 48 49 50

000
ASUS44 KSJT 260058
RWRSJT
WEST CENTRAL TEXAS REGIONAL WEATHER ROUNDUP
NATIONAL WEATHER SERVICE SAN ANGELO TX
800 PM CDT SAT JUN 25 2016

NOTE: "FAIR" INDICATES FEW OR NO CLOUDS BELOW 12,000 FEET WITH NO
SIGNIFICANT WEATHER AND/OR OBSTRUCTIONS TO VISIBILITY.

TXZ049-054-064>066-071>073-076>078-098-099-113-114-127-128-139-140-
154-155-168>170-260200
...LOCATIONS ACROSS WEST CENTRAL TEXAS...

CITY           SKY/WX    TMP DP  RH WIND       PRES   REMARKS
SAN ANGELO     CLEAR     87  69  54 SE20G33   29.97R
ABILENE        CLOUDY    82  69  64 SE16      30.00R
DYESS AFB      NOT AVBL
JUNCTION       CLOUDY    79  66  64 S9        30.02S
SWEETWATER     NOT AVBL
BROWNWOOD      NOT AVBL
COLEMAN        NOT AVBL
SONORA         NOT AVBL
OZONA          NOT AVBL
BRADY          NOT AVBL
$$

TEXAS PANHANDLE/OKLAHOMA PANHANDLE

CITY           SKY/WX    TMP DP  RH WIND       PRES   REMARKS
AMARILLO       SUNNY     89  55  31 S21G31    29.96S
BORGER         SUNNY     91  59  33 S20G31    29.92S
CANADIAN       NOT AVBL
DALHART        CLOUDY    76  60  57 NW22G37   30.01R
DUMAS          NOT AVBL
GUYMON         NOT AVBL
HEREFORD       NOT AVBL
PAMPA          NOT AVBL
PERRYTON       NOT AVBL
$$

SOUTHERN PANHANDLE/SOUTH PLAINS/ROLLING PLAINS

CITY           SKY/WX    TMP DP  RH WIND       PRES   REMARKS
LUBBOCK        MOSUNNY   85  63  47 S22G31    29.98R
SNYDER         NOT AVBL
CHILDRESS      PTCLDY    89  62  40 S18       29.93R
SEMINOLE       NOT AVBL
$$

PERMIAN BASIN

CITY           SKY/WX    TMP DP  RH WIND       PRES   REMARKS
MIDLAND        SUNNY     90  59  35 SE23G30   29.97R
ODESSA         MOSUNNY   91  58  32 S18       29.98R
WINK           SUNNY     91  59  33 SE21G30   29.92R
$$

FAR WEST/SOUTHWEST MOUNTAINS/TRANS PECOS

CITY           SKY/WX    TMP DP  RH WIND       PRES   REMARKS
ALPINE         NOT AVBL
DRYDEN           N/A     90  63  40 SE21      29.93R
EL PASO        CLOUDY    85  50  29 E15G24    29.97R
FORT STOCKTON  PTSUNNY   87  60  40 SE14G28   29.96R
GUADALUPE PASS CLOUDY    78  51  38 W16G22      N/A
MARFA          NOT AVBL
PECOS          NOT AVBL
$$

DALLAS/FORT WORTH METROPLEX

CITY           SKY/WX    TMP DP  RH WIND       PRES   REMARKS
DFW AIRPORT    MOCLDY    88  69  53 S13       29.98R
FTW MEACHAM    CLOUDY    88  70  55 S15       29.99R
DAL-EXECUTIVE  CLOUDY    86  71  60 S9G17     30.00R
GRAND PRAIRIE  CLEAR     88  70  55 S12G18    30.01R
ADDISON          N/A     88  72  58 S12       30.00R
MESQUITE       CLEAR     88  72  58 S6        29.99S
LANCASTER      NOT AVBL
$$

NORTH CENTRAL TEXAS

CITY           SKY/WX    TMP DP  RH WIND       PRES   REMARKS
SHRMAN/DENISON NOT AVBL
GAINESVILLE    NOT AVBL
BRIDGEPORT     NOT AVBL
DENTON         CLOUDY    85  72  65 S10       29.98R
WAXAHACHIE     NOT AVBL
GRANBURY       NOT AVBL
$$

WESTERN NORTH TEXAS

CITY           SKY/WX    TMP DP  RH WIND       PRES   REMARKS
WICHITA FALLS  PTCLDY    86  71  60 S14       29.94R
VERNON         NOT AVBL
BRECKENRIDGE   NOT AVBL
COMANCHE       NOT AVBL
$$

CENTRAL AND SOUTH CENTRAL TEXAS

CITY           SKY/WX    TMP DP  RH WIND       PRES   REMARKS
AUSTIN/BERGSTM CLOUDY    79  77  94 CALM      30.01S
WACO           CLOUDY    84  72  67 S10       30.01S
HILLSBORO      NOT AVBL
TEMPLE         CLOUDY    83  74  74 S10       30.03R
KILLEEN-GRAY   NOT AVBL
FORT HOOD      NOT AVBL
GEORGETOWN     CLEAR     81  73  78 SE6       30.02S
LAGO VISTA     NOT AVBL
SAN MARCOS     NOT AVBL
NEW BRAUNFELS  CLOUDY    78  75  90 CALM      30.00S
RANDOLPH AFB   NOT AVBL
SAN ANTONIO    CLOUDY    78  74  87 E5        30.01R
STINSON        CLOUDY    82  76  81 E3        29.98R
PLEASANTON     NOT AVBL
LA GRANGE      NOT AVBL
GIDDINGS       NOT AVBL
$$

EAST TEXAS

CITY           SKY/WX    TMP DP  RH WIND       PRES   REMARKS
PARIS          NOT AVBL
CLARKSVILLE    NOT AVBL
TYLER          PTCLDY    89  72  56 S7        30.02R
LONGVIEW       CLOUDY    87  75  67 S7        30.00R
PALESTINE      NOT AVBL
NACOGDOCHES    NOT AVBL
$$

TEXAS HILL COUNTRY AND EDWARDS PLATEAU

CITY           SKY/WX    TMP DP  RH WIND       PRES   REMARKS
LLANO          NOT AVBL
HORSESHOE BAY  NOT AVBL
KERRVILLE      NOT AVBL
FREDERICKSBRG  NOT AVBL
ROCKSPRINGS    NOT AVBL
HONDO          PTCLDY    80  76  87 SE13      30.02R
UVALDE         NOT AVBL
DEL RIO        CLOUDY    82  69  64 E22G29    29.92R
$$

SOUTHEAST TEXAS

CITY           SKY/WX    TMP DP  RH WIND       PRES   REMARKS
COLLEGE STN    MOCLDY    81  76  84 CALM      30.02R
CALDWELL       NOT AVBL
CROCKETT       NOT AVBL
BRENHAM        NOT AVBL
HUNTSVILLE     CLOUDY    88  73  61 VRB5      30.03R
CONROE         CLOUDY    84  75  74 S5        30.03F
HOUSTON BUSH   MOCLDY    84  76  76 CALM      30.02R
HOUSTON HOBBY  MOCLDY    86  72  62 S8        30.02R
PERLAND        CLEAR     88  74  63 S6        30.04R
WHARTON        NOT AVBL
$$

THE UPPER TEXAS COAST

CITY           SKY/WX    TMP DP  RH WIND       PRES   REMARKS
ORANGE         NOT AVBL
PORT ARTHUR    CLEAR     83  75  77 S3        30.03S
GALVESTON      PTCLDY    85  78  80 S10       30.04S
ANGLETON       PTCLDY    85  76  74 S8        30.03R
BAY CITY       NOT AVBL
$$

TEXAS COASTAL BEND, RIO GRANDE PLAINS DEEP SOUTH TEXAS

CITY           SKY/WX    TMP DP  RH WIND       PRES   REMARKS
VICTORIA         N/A    N/A N/A N/A MISG      30.01R
BEEVILLE       NOT AVBL
ROCKPORT       MOCLDY    84  76  76 SE14      29.99R
PORT ARANSAS   NOT AVBL
PORT LAVACA    NOT AVBL
CORPUS CHRISTI CLOUDY    85  77  77 SE16      29.98S
KINGSVILLE NAS CLOUDY    83  79  88 SE15G21   29.97S
COTULLA        PTCLDY    87  72  60 SE16      29.95F
LAREDO         NOT AVBL
BROWNSVILLE    CLOUDY    85  76  74 SE17      29.97S
PORT ISABEL    PTCLDY    84  77  79 SE15      29.96F
HEBBRONVILLE   NOT AVBL
MCALLEN        CLEAR     89  73  59 SE17      29.94R
WESLACO        NOT AVBL
FALFURRIAS     NOT AVBL
EDINBURG       NOT AVBL
$$



USA.gov is the U.S. government's official web portal to all federal, state and local government web resources and services.